[[{"header":{"parameterUnit":"m.s-1","parameterCategory":1,"la1":30.2991,"la2":30.254,"lo1":-89.0895,"lo2":-89.0444,"dy":0.0017,"dx":0.0017,"nx":28,"ny":28,"refTime":"2025-01-05T03:00:00:Z","depth":0,"parameterNumber":2,"parameterNumberName":"U-component_of_WINDS"},"data":[0,0,0,0,0,0,0,0,0,0,0,0,0,0,0,0,0,0,0,0,0,0,0,0,0,0,0,0,0,0,0,0,0,0,0,0,0,0,0,0,0,0,0,0,0,0,0,0,0,0,0,0,0,0,0,0,0,0,-0.2915,-0.2916,0,-0.3018,-0.3019,-0.302,-0.3085,-0.3085,-0.3086,-0.3086,-0.3191,-0.3193,-0.3195,0,0,0,0,0,0,0,0,0,0,0,0,0,-0.2773,-0.2775,-0.2915,-0.2916,-0.2917,-0.3018,-0.3019,-0.302,-0.3085,-0.3085,-0.3086,-0.3086,-0.319,-0.3193,-0.3196,0,0,0,0,0,0,0,0,0,0,0,0,0,-0.2851,-0.2776,-0.2914,-0.2962,-0.2967,-0.3017,-0.3019,-0.3021,-0.3085,-0.3085,-0.3086,-0.3087,-0.3189,-0.3192,-0.3196,-0.3207,0,0,-0.3207,-0.3209,0,0,0,0,0,0,0,0,-0.2846,-0.2856,-0.2953,-0.2958,-0.2964,-0.3039,-0.3007,-0.3083,-0.3085,-0.304,-0.3086,-0.3087,-0.314,-0.3147,-0.3165,-0.3212,-0.3217,-0.3207,-0.321,-0.3211,-0.3212,0,0,0,0,0,0,0,-0.2841,-0.2852,-0.2956,-0.2955,-0.2961,-0.2977,-0.2989,-0.3022,-0.3085,-0.3044,-0.3049,-0.306,-0.3143,-0.3162,-0.3168,-0.3218,-0.3207,-0.3211,-0.3213,-0.3214,-0.3279,-0.3278,0,0,0,0,0,0,-0.2828,-0.2847,-0.2952,-0.2959,-0.2905,-0.2979,-0.2992,-0.3015,-0.3085,-0.3097,-0.306,-0.3063,-0.3155,-0.3164,-0.3172,-0.319,-0.3211,-0.3215,-0.3217,-0.3279,-0.3279,-0.3278,0,0,0,0,0,0,-0.2825,-0.2837,-0.2948,-0.2904,-0.2919,-0.2981,-0.3006,-0.3016,-0.3035,-0.3097,-0.3109,-0.3068,-0.3156,-0.3167,-0.3198,-0.3194,-0.3216,-0.322,-0.328,-0.3279,-0.3278,-0.3225,0,0,0,0,0,0,-0.282,-0.2835,-0.284,-0.2904,-0.2922,-0.2972,-0.3005,-0.3018,-0.3042,-0.3047,-0.3108,-0.3118,-0.3157,-0.3192,-0.3202,-0.32,-0.3222,-0.328,-0.328,-0.3279,-0.3227,-0.3223,-0.3218,0,0,0,0,0,-0.2815,-0.2821,-0.284,-0.2853,-0.293,-0.2972,-0.2982,-0.3027,-0.3041,-0.3047,-0.3086,-0.3116,-0.3193,-0.3195,-0.3206,-0.3205,-0.3281,-0.328,-0.3279,-0.3229,-0.3224,-0.3219,0,0,0,0,0,0,-0.2756,-0.283,-0.2853,-0.288,-0.2919,-0.2983,-0.2991,-0.302,-0.3056,-0.3059,-0.3114,-0.3127,-0.3152,-0.3182,-0.3182,-0.322,-0.3241,-0.3242,-0.3199,-0.3194,-0.319,-0.3182,-0.3225,0,0,0,0,0,-0.2746,-0.2775,-0.2838,-0.2856,-0.2874,-0.2929,-0.2949,-0.2981,-0.3024,-0.3041,-0.3083,-0.3123,-0.3156,-0.3177,-0.3211,-0.3232,-0.3246,-0.3237,-0.3232,-0.3228,-0.3229,-0.3241,-0.3238,-0.3275,-0.3275,-0.3275,0,0,-0.2726,-0.277,-0.2785,-0.2845,-0.2879,-0.2907,-0.2943,-0.2971,-0.2992,-0.3045,-0.3077,-0.3109,-0.3157,-0.3183,-0.3196,-0.3208,-0.3222,-0.3227,-0.3223,-0.3226,-0.324,-0.3236,-0.3233,-0.3274,-0.3274,-0.3274,0,0,-0.2703,-0.274,-0.2758,-0.2792,-0.2843,-0.288,-0.2884,-0.2944,-0.2967,-0.3,-0.304,-0.3065,-0.3122,-0.3154,-0.3178,-0.3167,-0.3196,-0.3177,-0.3153,-0.3165,-0.3162,-0.316,-0.3155,-0.3153,-0.3177,-0.3176,-0.3176,0,-0.2672,-0.2716,-0.2764,-0.279,-0.2815,-0.2864,-0.2883,-0.2913,-0.2972,-0.2988,-0.3001,-0.3072,-0.3109,-0.3142,-0.314,-0.3158,-0.3164,-0.317,-0.3159,-0.3157,-0.3155,-0.3152,-0.315,-0.3174,-0.3174,-0.3174,-0.3175,0,-0.2674,-0.2704,-0.2712,-0.2769,-0.2795,-0.2817,-0.2868,-0.2888,-0.2917,-0.2952,-0.2984,-0.3029,-0.3073,-0.3083,-0.3112,-0.3121,-0.3127,-0.3148,-0.317,-0.3148,-0.3146,-0.3145,-0.317,-0.3171,-0.3172,-0.3172,0,0,-0.2617,-0.27,-0.2702,-0.2728,-0.2788,-0.2812,-0.2836,-0.2879,-0.2895,-0.2934,-0.2955,-0.3001,-0.3021,-0.3048,-0.3081,-0.3091,-0.3079,-0.3112,-0.3114,-0.3104,-0.3091,-0.3074,-0.3072,-0.3098,-0.3098,-0.3098,-0.3087,0,-0.2604,-0.2649,-0.2693,-0.2723,-0.2751,-0.2797,-0.2818,-0.2857,-0.289,-0.2918,-0.2954,-0.2986,-0.301,-0.3027,-0.3039,-0.3078,-0.3077,-0.3079,-0.3118,-0.3119,-0.3104,-0.3071,-0.3053,-0.304,-0.3086,-0.3086,-0.3086,0,-0.2594,-0.2631,-0.2663,-0.272,-0.2733,-0.2751,-0.2793,-0.282,-0.2864,-0.2887,-0.2917,-0.2952,-0.2978,-0.2997,-0.3035,-0.3035,-0.3054,-0.3075,-0.3076,-0.3081,-0.3101,-0.3074,-0.3037,-0.3035,-0.3085,-0.3085,-0.3085,0,-0.2548,-0.2606,-0.2633,-0.2654,-0.2721,-0.2732,-0.276,-0.2806,-0.2828,-0.2865,-0.2881,-0.292,-0.2941,-0.2971,-0.3015,-0.3025,-0.3047,-0.307,-0.3067,-0.3066,-0.3069,-0.3068,-0.3034,-0.3082,-0.3082,-0.3082,-0.3082,0,-0.2528,-0.2546,-0.2614,-0.263,-0.2651,-0.2701,-0.2721,-0.2753,-0.2793,-0.2816,-0.2859,-0.2879,-0.2936,-0.2963,-0.2998,-0.3023,-0.3033,-0.3052,-0.3061,-0.3048,-0.3045,-0.306,-0.3062,-0.3081,-0.3081,-0.3081,-0.3081,0,-0.2481,-0.2527,-0.2559,-0.262,-0.2635,-0.2648,-0.27,-0.2717,-0.2752,-0.2781,-0.2791,-0.2846,-0.288,-0.2927,-0.2976,-0.2999,-0.3019,-0.3033,-0.3004,-0.3009,-0.3003,-0.3003,-0.2977,-0.2976,-0.3024,-0.3023,-0.3023,0,-0.2465,-0.248,-0.2542,-0.256,-0.2587,-0.2617,-0.264,-0.2689,-0.2712,-0.2763,-0.2774,-0.2812,-0.2845,-0.2897,-0.2941,-0.2978,-0.2994,-0.2982,-0.3,-0.2986,-0.2993,-0.2991,-0.2993,-0.2977,-0.2977,-0.2976,-0.2976,0,-0.2431,-0.2453,-0.2485,-0.2525,-0.2552,-0.2585,-0.2621,-0.2634,-0.2691,-0.2714,-0.2749,-0.2774,-0.2824,-0.2861,-0.2904,-0.2933,-0.2963,-0.297,-0.2971,-0.2958,-0.294,-0.2949,-0.2992,-0.297,-0.2971,-0.2971,-0.2971,-0.2972,-0.2399,-0.2414,-0.246,-0.2494,-0.2526,-0.2558,-0.2577,-0.2614,-0.2645,-0.2689,-0.2716,-0.2751,-0.2794,-0.2855,-0.2882,-0.291,-0.2922,-0.2924,-0.2924,-0.2924,-0.2919,-0.2935,-0.2918,-0.2918,-0.2918,-0.2918,-0.2919,0,-0.2367,-0.2399,-0.2429,-0.2478,-0.2504,-0.2531,-0.2572,-0.2592,-0.2622,-0.266,-0.2691,-0.2731,-0.2767,-0.2813,-0.2852,-0.2865,-0.2879,-0.2873,-0.2872,-0.2878,-0.2906,-0.2901,-0.286,-0.286,-0.286,-0.286,-0.286,-0.286,-0.2353,-0.238,-0.2407,-0.245,-0.2481,-0.2515,-0.2536,-0.2565,-0.2596,-0.2639,-0.2669,-0.2699,-0.274,-0.2782,-0.2816,-0.2829,-0.2841,-0.2829,-0.2846,-0.2871,-0.2876,-0.2881,-0.2877,-0.2832,-0.2832,-0.2817,-0.2816,-0.2816]},{"header":{"parameterUnit":"m.s-1","parameterCategory":1,"la1":30.2991,"la2":30.254,"lo1":-89.0895,"lo2":-89.0444,"dy":0.0017,"dx":0.0017,"nx":28,"ny":28,"refTime":"2025-01-05T03:00:00:Z","depth":0,"parameterNumber":3,"parameterNumberName":"V-component_of_WINDS"},"data":[0,0,0,0,0,0,0,0,0,0,0,0,0,0,0,0,0,0,0,0,0,0,0,0,0,0,0,0,0,0,0,0,0,0,0,0,0,0,0,0,0,0,0,0,0,0,0,0,0,0,0,0,0,0,0,0,0,0,6.472,6.4723,0,6.4931,6.4933,6.4935,6.4984,6.4982,6.4981,6.498,6.5193,6.52,6.5207,0,0,0,0,0,0,0,0,0,0,0,0,0,6.4359,6.4366,6.472,6.4723,6.4726,6.493,6.4933,6.4936,6.4984,6.4982,6.4981,6.4979,6.519,6.5199,6.5207,0,0,0,0,0,0,0,0,0,0,0,0,0,6.4537,6.4368,6.472,6.4774,6.4781,6.493,6.4933,6.4937,6.4984,6.4982,6.498,6.4978,6.5188,6.5198,6.5208,6.5317,0,0,6.5241,6.5245,0,0,0,0,0,0,0,0,6.4527,6.455,6.4764,6.4771,6.4779,6.4929,6.4884,6.5064,6.4985,6.4907,6.498,6.4977,6.5107,6.5124,6.5168,6.5327,6.5336,6.5241,6.5248,6.5252,6.5255,0,0,0,0,0,0,0,6.4515,6.4542,6.4803,6.4767,6.4776,6.4788,6.4811,6.4918,6.5016,6.4914,6.4918,6.4942,6.511,6.5158,6.5173,6.5339,6.5241,6.5251,6.5257,6.5261,6.56,6.5603,0,0,0,0,0,0,6.4493,6.4531,6.4797,6.481,6.4645,6.4796,6.4822,6.4883,6.5015,6.5034,6.4944,6.4944,6.5141,6.5161,6.5181,6.5319,6.5252,6.5262,6.5268,6.5597,6.5601,6.5604,0,0,0,0,0,0,6.4485,6.4516,6.4788,6.4672,6.4707,6.4805,6.4873,6.4888,6.4936,6.5038,6.5056,6.4974,6.514,6.5166,6.5283,6.5327,6.5267,6.5277,6.5594,6.5598,6.5602,6.5594,0,0,0,0,0,0,6.4475,6.4513,6.4556,6.4672,6.4713,6.4888,6.4876,6.4894,6.4954,6.4956,6.5071,6.5088,6.514,6.5267,6.5294,6.534,6.5285,6.5591,6.5596,6.5601,6.5591,6.5597,6.5603,0,0,0,0,0,6.4461,6.4544,6.4558,6.4589,6.4769,6.489,6.4914,6.4972,6.4957,6.5001,6.5067,6.5085,6.5317,6.5279,6.5309,6.5359,6.5588,6.5595,6.56,6.5588,6.5596,6.5603,0,0,0,0,0,0,6.4429,6.456,6.4577,6.47,6.4784,6.4898,6.4955,6.4978,6.5067,6.5065,6.5133,6.5159,6.5272,6.5327,6.5282,6.5472,6.5452,6.5465,6.5433,6.5441,6.5447,6.5432,6.5294,0,0,0,0,0,6.4437,6.4525,6.4634,6.4732,6.4774,6.4857,6.4912,6.495,6.5039,6.5075,6.5149,6.5235,6.5327,6.5387,6.5477,6.5598,6.5625,6.5648,6.5654,6.5658,6.5669,6.5739,6.575,6.5623,6.5623,6.5623,0,0,6.4452,6.4535,6.4586,6.4728,6.4797,6.4888,6.4886,6.4981,6.5049,6.5089,6.5205,6.5263,6.5362,6.5483,6.5539,6.5532,6.5709,6.5666,6.5668,6.5677,6.5746,6.5758,6.5768,6.5627,6.5627,6.5626,0,0,6.4528,6.4599,6.4689,6.4759,6.4865,6.492,6.4941,6.5053,6.5093,6.5211,6.5243,6.5324,6.5481,6.5552,6.5608,6.5711,6.5731,6.5738,6.577,6.5837,6.5847,6.5857,6.5895,6.5908,6.5748,6.5748,6.5748,0,6.4535,6.4672,6.4732,6.4827,6.4889,6.493,6.5022,6.5086,6.5216,6.5257,6.5247,6.5447,6.5517,6.5655,6.568,6.5724,6.5751,6.5726,6.5841,6.5851,6.5861,6.5898,6.5913,6.5748,6.5748,6.5748,6.5748,0,6.4676,6.4771,6.4831,6.4957,6.5025,6.5117,6.5192,6.5253,6.5285,6.5341,6.5461,6.5546,6.5656,6.5691,6.5722,6.5834,6.5827,6.5828,6.5809,6.5872,6.5909,6.5924,6.5749,6.5749,6.5748,6.5748,0,0,6.4739,6.4897,6.4918,6.4976,6.5096,6.517,6.5264,6.5373,6.5425,6.5512,6.5594,6.5727,6.5729,6.5793,6.5832,6.5891,6.597,6.5886,6.5889,6.59,6.6101,6.6101,6.6117,6.5983,6.5986,6.5988,6.6093,0,6.4831,6.5003,6.506,6.5202,6.5291,6.5331,6.5414,6.5496,6.5551,6.5634,6.5693,6.5788,6.5783,6.5822,6.5882,6.5947,6.6011,6.594,6.6061,6.6064,6.6037,6.6136,6.6136,6.6231,6.6108,6.611,6.6112,0,6.4962,6.5053,6.5205,6.5314,6.5354,6.5427,6.5532,6.5611,6.5704,6.574,6.5812,6.5847,6.5947,6.5921,6.6061,6.6011,6.6064,6.6103,6.6108,6.6124,6.6094,6.6156,6.6262,6.6277,6.6135,6.6133,6.6131,0,6.4995,6.5155,6.5268,6.5316,6.5446,6.5497,6.5553,6.5645,6.5707,6.5797,6.5838,6.5939,6.5994,6.6071,6.6132,6.6107,6.6267,6.6246,6.6301,6.6299,6.6334,6.6332,6.6453,6.6364,6.6363,6.6363,6.6363,0,6.5094,6.5185,6.5285,6.5354,6.5458,6.5522,6.5624,6.5682,6.5764,6.5845,6.5884,6.5959,6.6034,6.612,6.6167,6.6277,6.6301,6.6333,6.6345,6.6332,6.6328,6.6368,6.6364,6.6367,6.6366,6.6365,6.6365,0,6.515,6.522,6.5345,6.5458,6.5489,6.5561,6.5658,6.5726,6.5782,6.5885,6.5912,6.6,6.6102,6.617,6.63,6.6333,6.6453,6.6462,6.6422,6.6428,6.648,6.6475,6.6634,6.6659,6.655,6.6551,6.6552,0,6.5209,6.5281,6.5402,6.546,6.5517,6.5609,6.5673,6.5739,6.5803,6.5916,6.5972,6.6077,6.6165,6.6326,6.6401,6.6501,6.6515,6.6564,6.653,6.6514,6.6519,6.6515,6.6523,6.6569,6.657,6.6571,6.6572,0,6.5308,6.534,6.543,6.5534,6.5609,6.5693,6.5777,6.5822,6.5902,6.5973,6.6079,6.6147,6.6281,6.6385,6.6492,6.655,6.6575,6.6581,6.66,6.6587,6.6562,6.6579,6.6439,6.6578,6.6577,6.6577,6.6576,6.6576,6.537,6.5437,6.5533,6.5633,6.5704,6.5782,6.5853,6.5918,6.6007,6.6123,6.6155,6.6266,6.6358,6.6505,6.6564,6.6652,6.6647,6.6673,6.668,6.6686,6.6688,6.6546,6.6671,6.6671,6.6671,6.6671,6.6671,0,6.5474,6.5538,6.5629,6.5747,6.5825,6.5842,6.5936,6.6001,6.6098,6.6183,6.6269,6.6391,6.6492,6.6575,6.668,6.6734,6.6748,6.676,6.6758,6.6771,6.6685,6.666,6.6747,6.6747,6.6747,6.6746,6.6746,6.6746,6.5537,6.5651,6.5694,6.5844,6.5907,6.6017,6.6069,6.6142,6.621,6.6345,6.643,6.6483,6.6568,6.6679,6.6773,6.6795,6.6832,6.6842,6.6866,6.6785,6.6777,6.6769,6.6745,6.6849,6.6849,6.6945,6.6946,6.6947]}]]